| time (UTC) | temp F | wind direction | speed knots | gust knots | rain 1hr in | rain 24hr in | rain mn in | humidity % | barometer mb |
| 20260505165017 | 75 | 248 | 11.3 | 21.7 | 0.00 | 0.00 | 0.00 | 46 | 1010.1 |
| 20260505164016 | 74 | 248 | 15.6 | 24.3 | 0.00 | 0.00 | 0.00 | 46 | 1010.0 |
| 20260505163016 | 74 | 248 | 13.9 | 23.5 | 0.00 | 0.00 | 0.00 | 46 | 1010.1 |
| 20260505162016 | 74 | 248 | 11.3 | 17.4 | 0.00 | 0.00 | 0.00 | 47 | 1010.3 |
| 20260505161037 | 73 | 270 | 14.8 | 23.5 | 0.00 | 0.00 | 0.00 | 48 | 1010.2 |
| 20260505153036 | 72 | 225 | 10.4 | 16.5 | 0.00 | 0.00 | 0.00 | 51 | 1010.6 |
| 20260505152017 | 72 | 270 | 7.8 | 13.9 | 0.00 | 0.00 | 0.00 | 54 | 1010.7 |
| 20260505151016 | 70 | 248 | 10.4 | 16.5 | 0.00 | 0.00 | 0.00 | 54 | 1010.6 |
| 20260505140516 | 0 | 0.0 | 0.0 | 0.00 | 0.00 | 0.00 | |||
| 20260505125016 | 0 | 0.0 | 0.0 | 0.00 | 0.00 | 0.00 | |||
| 20260505124509 | 0 | 0.0 | 0.0 | 0.00 | 0.00 | 0.00 | |||
| 20260505124118 | 0 | 0.0 | 0.0 | 0.00 | 0.00 | 0.00 | |||
| 20260505123516 | 0 | 0.0 | 0.0 | 0.00 | 0.00 | 0.00 | |||
| 20260505122516 | 0 | 0.0 | 0.0 | 0.00 | 0.00 | 0.00 | |||
| 20260505122011 | 0 | 0.0 | 0.0 | 0.00 | 0.00 | 0.00 | |||
| 20260505121620 | 0 | 0.0 | 0.0 | 0.00 | 0.00 | 0.00 | |||
| 20260505121021 | 0 | 0.0 | 0.0 | 0.00 | 0.00 | 0.00 | |||
| 20260505120036 | 0 | 0.0 | 0.0 | 0.00 | 0.00 | 0.00 | |||
| 20260505115511 | 0 | 0.0 | 0.0 | 0.00 | 0.00 | 0.00 | |||
| 20260505115121 | 0 | 0.0 | 0.0 | 0.00 | 0.00 | 0.00 | |||
| 20260505114536 | 0 | 0.0 | 0.0 | 0.00 | 0.00 | 0.00 | |||
| 20260505113526 | 0 | 0.0 | 0.0 | 0.00 | 0.00 | 0.00 | |||
| 20260505113017 | 0 | 0.0 | 0.0 | 0.00 | 0.00 | 0.00 | |||
| 20260505112642 | 0 | 0.0 | 0.0 | 0.00 | 0.00 | 0.00 | |||
| 20260505112026 | 0 | 0.0 | 0.0 | 0.00 | 0.00 | 0.00 | |||
| 20260505111027 | 0 | 0.0 | 0.0 | 0.00 | 0.00 | 0.00 | |||
| 20260505110513 | 0 | 0.0 | 0.0 | 0.00 | 0.00 | 0.00 | |||
| 20260505110122 | 0 | 0.0 | 0.0 | 0.00 | 0.00 | 0.00 | |||
| 20260505102026 | 0 | 0.0 | 0.0 | 0.00 | 0.00 | 0.00 | |||
| 20260505101514 | 0 | 0.0 | 0.0 | 0.00 | 0.00 | 0.00 | |||
| 20260505101119 | 0 | 0.0 | 0.0 | 0.00 | 0.00 | 0.00 | |||
| 20260505100516 | 0 | 0.0 | 0.0 | 0.00 | 0.00 | 0.00 | |||
| 20260505095536 | 0 | 0.0 | 0.0 | 0.00 | 0.00 | 0.00 | |||
| 20260505095014 | 0 | 0.0 | 0.0 | 0.00 | 0.00 | 0.00 | |||
| 20260505094618 | 0 | 0.0 | 0.0 | 0.00 | 0.00 | 0.00 | |||
| 20260505094016 | 0 | 0.0 | 0.0 | 0.00 | 0.00 | 0.00 | |||
| 20260505093016 | 0 | 0.0 | 0.0 | 0.00 | 0.00 | 0.00 | |||
| 20260505092504 | 0 | 0.0 | 0.0 | 0.00 | 0.00 | 0.00 | 66 | ||
| 20260505092113 | 0 | 180 | 8.7 | 15.6 | 0.00 | 0.00 | 0.00 | 66 | |
| 20260505091056 | 61 | 180 | 7.0 | 11.3 | 0.00 | 0.00 | 0.00 | 66 | 1009.9 |
| 20260505090056 | 61 | 180 | 7.0 | 10.4 | 0.00 | 0.00 | 0.00 | 66 | 1009.9 |
| 20260505085041 | 61 | 180 | 7.8 | 13.0 | 0.00 | 0.00 | 0.00 | 65 | 1010.0 |
| 20260505084041 | 61 | 158 | 8.7 | 12.2 | 0.00 | 0.00 | 0.00 | 65 | 1009.8 |
| 20260505083016 | 62 | 158 | 10.4 | 13.9 | 0.00 | 0.00 | 0.00 | 64 | 1009.8 |
| 20260505082016 | 62 | 158 | 11.3 | 14.8 | 0.00 | 0.00 | 0.00 | 64 | 1009.7 |
| 20260505081036 | 62 | 158 | 10.4 | 14.8 | 0.00 | 0.00 | 0.00 | 64 | 1009.7 |
| 20260505080026 | 62 | 158 | 11.3 | 17.4 | 0.00 | 0.00 | 0.00 | 63 | 1009.6 |
| 20260505075016 | 62 | 158 | 11.3 | 13.9 | 0.00 | 0.00 | 0.00 | 64 | 1009.6 |
| 20260505074036 | 62 | 158 | 8.7 | 12.2 | 0.00 | 0.00 | 0.00 | 64 | 1009.8 |
| 20260505073016 | 62 | 158 | 8.7 | 14.8 | 0.00 | 0.00 | 0.00 | 64 | 1009.7 |
| 20260505072016 | 61 | 158 | 6.1 | 8.7 | 0.00 | 0.00 | 0.00 | 64 | 1010.0 |
| 20260505071021 | 61 | 180 | 7.0 | 12.2 | 0.00 | 0.00 | 0.00 | 64 | 1010.1 |
| 20260505070016 | 61 | 180 | 6.1 | 9.6 | 0.00 | 0.00 | 0.00 | 64 | 1010.1 |
| 20260505065016 | 61 | 180 | 8.7 | 13.9 | 0.00 | 0.00 | 0.00 | 64 | 1010.1 |
| 20260505064016 | 61 | 180 | 7.0 | 11.3 | 0.00 | 0.00 | 0.00 | 64 | 1010.1 |
| 20260505063016 | 61 | 158 | 8.7 | 13.0 | 0.00 | 0.00 | 0.00 | 63 | 1010.0 |
| 20260505062015 | 61 | 180 | 7.8 | 12.2 | 0.00 | 0.00 | 0.00 | 63 | 1010.1 |
| 20260505061016 | 61 | 180 | 9.6 | 13.9 | 0.00 | 0.00 | 0.00 | 63 | 1010.0 |
| 20260505060016 | 61 | 158 | 10.4 | 18.2 | 0.00 | 0.00 | 0.00 | 63 | 1010.0 |
| 20260505055036 | 62 | 158 | 12.2 | 19.1 | 0.00 | 0.00 | 0.00 | 62 | 1009.8 |
| 20260505054036 | 62 | 158 | 10.4 | 16.5 | 0.00 | 0.00 | 0.00 | 62 | 1009.8 |
| 20260505053016 | 61 | 158 | 11.3 | 17.4 | 0.00 | 0.00 | 0.00 | 62 | 1009.9 |
| 20260505052036 | 62 | 158 | 13.0 | 17.4 | 0.00 | 0.00 | 0.00 | 61 | 1010.0 |
| 20260505051016 | 62 | 158 | 13.0 | 19.1 | 0.00 | 0.00 | 0.00 | 60 | 1009.9 |
| 20260505041036 | 63 | 135 | 13.9 | 23.5 | 0.00 | 0.00 | 0.00 | 55 | 1010.0 |
| 20260505040017 | 63 | 135 | 13.0 | 24.3 | 0.00 | 0.00 | 0.00 | 55 | 1009.9 |
| 20260505035035 | 64 | 135 | 15.6 | 24.3 | 0.00 | 0.00 | 0.00 | 54 | 1009.8 |
| 20260505034015 | 64 | 135 | 13.9 | 23.5 | 0.00 | 0.00 | 0.00 | 53 | 1009.7 |
| 20260505033015 | 64 | 135 | 14.8 | 26.1 | 0.00 | 0.00 | 0.00 | 53 | 1009.6 |
| 20260505032015 | 64 | 135 | 17.4 | 26.9 | 0.00 | 0.00 | 0.00 | 52 | 1009.7 |
| 20260505031015 | 64 | 135 | 20.0 | 30.4 | 0.00 | 0.00 | 0.00 | 52 | 1009.8 |
| 20260505030020 | 64 | 135 | 18.2 | 29.5 | 0.00 | 0.00 | 0.00 | 52 | 1009.7 |
| 20260505025015 | 64 | 135 | 18.2 | 31.3 | 0.00 | 0.00 | 0.00 | 52 | 1009.9 |
| 20260505024017 | 63 | 135 | 14.8 | 28.7 | 0.00 | 0.00 | 0.00 | 53 | 1009.9 |
| 20260505023015 | 63 | 113 | 15.6 | 23.5 | 0.00 | 0.00 | 0.00 | 53 | 1009.8 |
| 20260505022037 | 63 | 113 | 16.5 | 22.6 | 0.00 | 0.00 | 0.00 | 53 | 1009.9 |
| 20260505021015 | 63 | 113 | 15.6 | 25.2 | 0.00 | 0.00 | 0.00 | 52 | 1010.1 |
| 20260505020037 | 63 | 113 | 16.5 | 25.2 | 0.00 | 0.00 | 0.00 | 51 | 1010.1 |
| 20260505015015 | 64 | 135 | 16.5 | 22.6 | 0.00 | 0.00 | 0.00 | 50 | 1010.2 |
| 20260505014027 | 64 | 113 | 15.6 | 24.3 | 0.00 | 0.00 | 0.00 | 50 | 1010.2 |
| 20260505013035 | 64 | 113 | 13.9 | 22.6 | 0.00 | 0.00 | 0.00 | 50 | 1009.9 |
| 20260505012017 | 64 | 135 | 15.6 | 25.2 | 0.00 | 0.00 | 0.00 | 50 | 1010.0 |
| 20260505011017 | 64 | 135 | 13.0 | 20.9 | 0.00 | 0.00 | 0.00 | 50 | 1010.0 |
| 20260505010017 | 64 | 113 | 13.0 | 26.9 | 0.00 | 0.00 | 0.00 | 50 | 1009.8 |
| 20260505005017 | 64 | 113 | 13.0 | 21.7 | 0.00 | 0.00 | 0.00 | 51 | 1009.7 |
| 20260505004036 | 64 | 113 | 13.0 | 23.5 | 0.00 | 0.00 | 0.00 | 50 | 1009.7 |
| 20260505003017 | 64 | 113 | 12.2 | 18.2 | 0.00 | 0.00 | 0.00 | 50 | 1009.6 |
| 20260505002017 | 64 | 113 | 12.2 | 17.4 | 0.00 | 0.00 | 0.00 | 50 | 1009.6 |
| 20260505001017 | 64 | 113 | 12.2 | 19.1 | 0.00 | 0.00 | 0.00 | 50 | 1009.6 |
| 20260505000044 | 65 | 113 | 10.4 | 18.2 | 0.00 | 0.00 | 0.00 | 50 | 1009.5 |
| 20260504235017 | 65 | 113 | 9.6 | 16.5 | 0.00 | 0.00 | 0.00 | 49 | 1009.5 |
| 20260504234017 | 65 | 113 | 9.6 | 20.0 | 0.00 | 0.00 | 0.00 | 48 | 1009.5 |
| 20260504233027 | 66 | 135 | 13.0 | 20.0 | 0.00 | 0.00 | 0.00 | 47 | 1009.3 |
| 20260504232017 | 66 | 135 | 8.7 | 16.5 | 0.00 | 0.00 | 0.00 | 47 | 1009.5 |
| 20260504231017 | 66 | 135 | 11.3 | 17.4 | 0.00 | 0.00 | 0.00 | 46 | 1009.3 |
| 20260504225017 | 66 | 113 | 13.0 | 20.9 | 0.00 | 0.00 | 0.00 | 46 | 1009.3 |
| 20260504224018 | 67 | 135 | 12.2 | 19.1 | 0.00 | 0.00 | 0.00 | 45 | 1009.3 |
| 20260504223110 | 67 | 135 | 10.4 | 20.0 | 0.00 | 0.00 | 0.00 | 45 | 1009.4 |
| 20260504222102 | 68 | 135 | 10.4 | 17.4 | 0.00 | 0.00 | 0.00 | 44 | 1009.4 |
| 20260504221102 | 68 | 135 | 8.7 | 16.5 | 0.00 | 0.00 | 0.00 | 43 | 1009.5 |
| 20260504220059 | 69 | 225 | 8.7 | 15.6 | 0.00 | 0.00 | 0.00 | 41 | 1009.6 |
| 20260504215017 | 69 | 180 | 9.6 | 17.4 | 0.00 | 0.00 | 0.00 | 41 | 1009.6 |
| 20260504214017 | 69 | 225 | 8.7 | 16.5 | 0.00 | 0.00 | 0.00 | 41 | 1009.5 |
| 20260504213034 | 69 | 158 | 11.3 | 19.1 | 0.00 | 0.00 | 0.00 | 41 | 1009.6 |
| 20260504212017 | 69 | 225 | 7.8 | 13.9 | 0.00 | 0.00 | 0.00 | 41 | 1009.7 |
| 20260504211017 | 69 | 248 | 8.7 | 14.8 | 0.00 | 0.00 | 0.00 | 41 | 1009.6 |
| 20260504210120 | 68 | 248 | 9.6 | 17.4 | 0.00 | 0.00 | 0.00 | 42 | 1009.7 |
| 20260504205027 | 68 | 248 | 9.6 | 17.4 | 0.00 | 0.00 | 0.00 | 41 | 1009.7 |
| 20260504204017 | 69 | 248 | 8.7 | 15.6 | 0.00 | 0.00 | 0.00 | 41 | 1009.9 |
| 20260504203017 | 68 | 225 | 11.3 | 20.9 | 0.00 | 0.00 | 0.00 | 41 | 1009.7 |
| 20260504202017 | 69 | 270 | 7.8 | 15.6 | 0.00 | 0.00 | 0.00 | 41 | 1009.9 |
| 20260504201017 | 68 | 225 | 10.4 | 16.5 | 0.00 | 0.00 | 0.00 | 42 | 1010.1 |
| 20260504200115 | 68 | 180 | 10.4 | 20.0 | 0.00 | 0.00 | 0.00 | 41 | 1010.2 |
| 20260504195017 | 67 | 225 | 13.0 | 21.7 | 0.00 | 0.00 | 0.00 | 42 | 1010.2 |
| 20260504194016 | 67 | 225 | 12.2 | 19.1 | 0.00 | 0.00 | 0.00 | 41 | 1010.4 |
| 20260504193047 | 67 | 225 | 12.2 | 19.1 | 0.00 | 0.00 | 0.00 | 42 | 1010.5 |
| 20260504192037 | 67 | 225 | 7.0 | 14.8 | 0.00 | 0.00 | 0.00 | 43 | 1010.7 |
| 20260504191017 | 68 | 180 | 8.7 | 16.5 | 0.00 | 0.00 | 0.00 | 42 | 1010.8 |
| 20260504190017 | 67 | 225 | 7.8 | 14.8 | 0.00 | 0.00 | 0.00 | 42 | 1010.8 |
| 20260504185022 | 67 | 180 | 7.8 | 13.9 | 0.00 | 0.00 | 0.00 | 42 | 1011.1 |
| 20260504184022 | 66 | 248 | 8.7 | 16.5 | 0.00 | 0.00 | 0.00 | 42 | 1011.0 |
| 20260504183017 | 66 | 248 | 9.6 | 15.6 | 0.00 | 0.00 | 0.00 | 43 | 1011.3 |
| 20260504182017 | 65 | 158 | 6.1 | 13.9 | 0.00 | 0.00 | 0.00 | 45 | 1011.4 |
| 20260504181016 | 65 | 225 | 7.8 | 15.6 | 0.00 | 0.00 | 0.00 | 45 | 1011.5 |
| 20260504180032 | 65 | 158 | 9.6 | 17.4 | 0.00 | 0.00 | 0.00 | 44 | 1011.6 |
| 20260504175017 | 64 | 180 | 7.8 | 12.2 | 0.00 | 0.00 | 0.00 | 45 | 1011.6 |
| 20260504174016 | 64 | 225 | 8.7 | 14.8 | 0.00 | 0.00 | 0.00 | 44 | 1011.9 |
| 20260504173027 | 64 | 180 | 9.6 | 16.5 | 0.00 | 0.00 | 0.00 | 44 | 1011.9 |
| 20260504172026 | 64 | 225 | 7.8 | 18.2 | 0.00 | 0.00 | 0.00 | 45 | 1012.2 |
| 20260504171021 | 63 | 180 | 9.6 | 17.4 | 0.00 | 0.00 | 0.00 | 45 | 1012.4 |